Location: Byszew
(52.1813°N, 19.2693°E)
Time: 23:33:07
(UTC+00:00)

Cosmos 2322 Rocket - Pass Details

Date: 02 July 2021
Orbit: 833 x 850 km, 71.0° (Epoch: 26 July)

Event Time Altitude Azimuth Distance (km) Brightness Sun altitude
Rises 21:19:02 0° 309° (NW) 3,424 6.5 -12.4°
Reaches altitude 10° 21:23:41 10° 344° (NNW) 2,485 6.2 -12.7°
Maximum altitude 21:25:22 11° 1° (N) 2,396 5.7 -12.8°
Drops below altitude 10° 21:27:03 10° 18° (NNE) 2,482 5.5 -12.8°
Sets 21:31:41 0° 53° (NE) 3,412 5.6 -13.1°
